OBJECT J, 51832

Orbit data source: Space-Track

You're viewing an Uncataloged Satellite

Recently launched and/or uncataloged satellites may have evolving metadata. Metadata may include but not limited to: Owner, Maufacturer, Bus, Motor, and Mission.

OBJECT J, 51832 is a satellite owned by Sanya RI (CN) in SSO that was launched on Sun, 27 Feb 2022 UTC via a CHANG ZHENG 8 launch vehicle from the Wenchang Satellite Launch Center (WSC). Unknown objects in Earth's orbit typically refer to objects detected orbiting the Earth but have not yet been identified or cataloged. These objects could be anything from previously untracked satellites, spent rocket stages, debris from satellite collisions, or even natural meteoroids temporarily captured by Earth's gravity.

Loading next visibility...
OBJECT J details
Identifier
51832, 2022-019J
Orbit
SSO
Last TLE update8 hours ago
Origin
Flag of CNSanya RI (CN / PRC)
ManufacturerDFH Shenzhen
MissionCivil Imaging
Bus & MotorHAINAN-1, Unknown motor
Mass65 kg wet, 65 kg dry
Launch date (UTC)
2022-02-27 (3 years ago)
Launch vehicle
CHANG ZHENG 8
Launch site
Wenchang Satellite Launch Center (WSC)
Object typeUnknown
Shape & HBRBox + 2 Pan, 2 m
Radar Cross Section0.583 m², Large (>1 m²)

Expand to show TLE details & history

TLE from 8 hours ago
0 OBJECT J
1 51832U 22019J   25014.93419953  .00003998  00000-0  20576-3 0  9990
2 51832  97.4097  85.1403 0007994 233.3552 126.6947 15.16965568159136
Epoch: 2025-01-14T22:25Z
Definitive object data (Epoch: 2025-01-14T22:25:14.839Z)
Latitude-0.00002°
Longitude-5.8053°
Altitude521.4 km
Speed7.601 km/s
True Right ascension05h 40m 33s
True Declination0° 00' 00"
Sunlit
Object was in full shadow at TLE epoch
Visualization TLE readout
Latitude46.25452°
Longitude-13.2405°
Altitude527.657 km
Speed7.601 km/s
Apparent Right ascension00h 01m 12s
Apparent Declination19° 29' 16"
Sunlit
Object is in full shadow
Visualization observer readout
Local Sidereal Time07:11:52
Azimuth296.069° NW
Elevation-0.308°
Doppler factor1
Orbital elements
Apogee altitude517.496 km
Perigee altitude506.48 km
Semi-major axis6,890.125 km
Eccentricity0.0007994
Inclination97.4097°
RAAN85.1403°
Arg. of periapsis233.3552°
True anomaly126.76811°
Mean anomaly126.6947°
Eccentric anomaly126.73141°
Mean motion3.79492 °/min
BSTAR0.00020576
Orbital period94.86 mins
Loading maneuver chart data...
Loading historical data...
Loading historical data...
Loading historical data...
Loading historical data...
Loading historical data...
Loading historical data...
Loading historical data...

OBJECT J Visibility forecast

Observer location: undefined°, undefined

Span
Click to sort rows by Start time (UTC) header in descending order
Start Az.
Max El. time (UTC)
Max El. Az.
Max El.
End time (UTC)
End Az.
4 mins2025-01-15 16:25:28.611Z60.232° ENE2025-01-15 16:27:28.611Z94.913° ESE14.886°2025-01-15 16:29:28.611Z128.508° SE
5 mins2025-01-15 17:59:28.611Z338.472° N2025-01-15 18:01:28.611Z288.776° WNW27.702°2025-01-15 18:04:28.611Z227.253° WSW
5 mins2025-01-16 04:38:28.611Z171.736° S2025-01-16 04:40:28.611Z223.463° SW44.63°2025-01-16 04:43:28.611Z345.521° N
|